User: anonymous   Login
Location: Chenango Forks
(42.2242°N, 75.8278°W)
Time: 06:08:59
(UTC-04:00)
Language:

Okean 3 Rocket - Orbit

View from above orbital plane
View from above orbital plane
View from above satellite
View from above satellite

Ground track
Ground track

The orbit data is extracted from the following two-line orbital elements,

1 21398U 91039B   15210.43507119  .00000166  00000-0  19152-4 0  9999
2 21398 082.5249 147.2607 0019971 281.1105 218.1490 14.79498433302065
Epoch (UTC): 29 July 2015 10:26:30
Eccentricity: 0.0019971
inclination: 82.5249°
perigee height: 617 km
apogee height: 645 km
right ascension of ascending node: 147.2607°
argument of perigee: 281.1105°
revolutions per day: 14.79498433
mean anomaly at epoch: 218.1490°
orbit number at epoch: 30206

The dashed part of the orbit path shows where the satellite is in the earth's shadow,  

DLR